Terminal Aerodrome Forecast
Issued by NWS Dallas/Fort Worth, TX

Home | Current Version | Previous Version | Text Only | Print | Product List | Glossary On
Versions: 1 2 3 4 5 6 7 8 9 10 11 12 13 14 15 16 17 18 19 20 21 22 23 24 25 26
000
FTUS44 KFWD 200524
TAFACT
TAF
KACT 200524Z 2006/2106 17011KT P6SM FEW050 BKN250
     FM201000 18012KT P6SM SCT009 BKN012
      TEMPO 2010/2012 BKN009
     FM201500 18013KT P6SM BKN025
     FM201600 18013KT P6SM SCT030=

USA.gov is the U.S. government's official web portal to all federal, state and local government web resources and services.